Regional Weather Roundup
Issued by NWS

Home | Current Version | Previous Version | Text Only | Print | Product List | Glossary On
Versions: 1 2 3 4 5 6 7 8 9 10 11 12 13 14 15 16 17 18 19 20 21 22 23 24 25 26 27 28 29 30 31 32 33 34 35 36 37 38 39 40 41 42 43 44 45 46 47 48 49 50
000
ASUS45 KREV 201110
RWRNV
NEVADA REGIONAL WEATHER ROUNDUP
NATIONAL WEATHER SERVICE RENO NV
300 AM PST SAT DEC 20 2014

NOTE: "FAIR" INDICATES FEW OR NO CLOUDS BELOW 12,000 FEET WITH NO
SIGNIFICANT WEATHER AND/OR OBSTRUCTIONS TO VISIBILITY.

NVZ001-003-004-201200-
WESTERN NEVADA

CITY           SKY/WX    TMP DP  RH WIND       PRES   REMARKS
RENO           CLOUDY    42  36  79 CALM      30.08R
CARSON CITY    MOCLDY    45  30  57 SW8       30.07F
MINDEN         FAIR      43  25  49 S17G24    30.07
SLIDE MTN        N/A     27  27 100 W32         N/A
PYRAMID LAKE     N/A     45 N/A N/A E10         N/A
FALLON         CLOUDY    40  35  83 S8        30.09S
LOVELOCK       CLOUDY    34  31  88 E5        30.10S
HAWTHORNE      PTCLDY    39  32  75 CALM      30.12S
$$

NVZ002-CAZ072-073-201200-
NORTHERN AND CENTRAL SIERRA

CITY           SKY/WX    TMP DP  RH WIND       PRES   REMARKS
S. LAKE TAHOE  CLOUDY    37  30  75 CALM      30.10F
TRUCKEE        MIX PCPN  32  32 100 N3        30.11R
SQUAW VLY 8000 NOT AVBL
SUSANVILLE     MOCLDY    39  37  93 E3        30.07S
BLUE CANYON    LGT RAIN  39  37  92 S9        30.14R VSB 1/2
MAMMOTH LAKES  CLOUDY    32  27  80 SE3       30.13F
BRIDGEPORT     CLOUDY    37  25  61 SW10G17   30.08F
$$

NVZ030-031-036-201200-
NORTHERN NEVADA

CITY           SKY/WX    TMP DP  RH WIND       PRES   REMARKS
ELKO           CLOUDY    32  30  92 N3        30.10F
WINNEMUCCA     CLOUDY    37  33  85 S10       30.08S
WENDOVER       PTCLDY    30  27  86 CALM      30.13F
$$

NVZ035-037-201200-
CENTRAL NEVADA

CITY           SKY/WX    TMP DP  RH WIND       PRES   REMARKS
ELY            PTCLDY    22  21  96 S8        30.16S
EUREKA           N/A     34  29  82 SW5       30.12R
$$

NVZ013-014-201200-
SOUTH CENTRAL NEVADA

CITY           SKY/WX    TMP DP  RH WIND       PRES   REMARKS
TONOPAH        CLOUDY    28  25  88 CALM      30.16F
$$

NVZ017-020-022-201200-
SOUTHERN NEVADA

CITY           SKY/WX    TMP DP  RH WIND       PRES   REMARKS
LAS VEGAS      PTCLDY    44  36  73 S10       30.13R
N. LAS VEGAS   CLEAR     41  35  79 NW5       30.15S
NELLIS AFB     CLEAR     41  37  87 W6        30.17S
HENDERSON      CLEAR     39  36  89 S7        30.18R
MERCURY        CLEAR     35  32  88 E5        30.15F
$$



USA.gov is the U.S. government's official web portal to all federal, state and local government web resources and services.